Flag for Greece Weather past 2 weeks in Peristeri, Greece

Now
57 °F

Passing clouds.


Feels Like: 57 °F
Forecast: 47 / 57 °F
Wind: 5 mph from West

Location: Elefsis Airport

Current Time: Feb 2, 2015 at 2:55:40 AM

Latest Report: Feb 2, 2015 at 2:20 AM


Visibility: N/A

Pressure: 29.56 "Hg

Humidity: 59%

Dew point: 43 °F

Location of PeristeriLocation

Historic Weather in Peristeri — Graph

°F

Peristeri temperature yesterday

Maximum temperature yesterday: 70 °F (at 11:50 AM)
Minimum temperature yesterday: 59 °F (at 9:20 PM)
Average temperature yesterday: 65 °F

Past Weeks' High & Low Weather Summary

 TemperatureHumidityPressure
High70 °F (Feb 1, 11:50 AM)100% (Jan 20, 4:20 AM)30.33 "Hg (Jan 20, 4:20 AM)
Low37 °F (Jan 28, 5:20 AM)35% (Feb 1, 2:50 PM)29.36 "Hg (Feb 1, 7:50 AM)
Average54 °F76%29.84 "Hg
* Reported Jan 18 1:20 AM — Feb 2 1:20 AM, Peristeri, Weather by CustomWeather, © 2014

Note: Actual official high and low records may vary slightly from our data, if they occured in-between our weather recording intervals... More about our weather records

Advertising

Peristeri weather history for previous 24 hours

 ConditionsComfort  
Time TempWeatherWind HumidityBarometerVisibility
1:20 AM
Feb 2
59 °FPassing clouds.12 mph48%29.56 "HgN/A
12:50 AM59 °FPassing clouds.7 mph48%29.53 "HgN/A
12:20 AM59 °FPassing clouds.5 mph51%29.56 "HgN/A
11:50 PM
Feb 1
59 °FPassing clouds.5 mph51%29.56 "HgN/A
11:20 PM59 °FPassing clouds.No wind55%29.56 "HgN/A
10:50 PM59 °FPassing clouds.No wind55%29.56 "HgN/A
10:20 PM59 °FPassing clouds.5 mph59%29.56 "HgN/A
9:50 PM63 °FPassing clouds.9 mph49%29.56 "HgN/A
9:20 PM59 °FPassing clouds.No wind59%29.53 "Hg4 mi
8:50 PM63 °FPassing clouds.7 mph49%29.53 "Hg4 mi
8:20 PM64 °FPassing clouds.9 mph46%29.53 "Hg2 mi
7:50 PM64 °FPassing clouds.14 mph43%29.53 "Hg2 mi
7:20 PM66 °FPassing clouds.14 mph37%29.50 "Hg2 mi
6:50 PM66 °FPassing clouds.14 mph35%29.50 "Hg2 mi
6:20 PM66 °FPassing clouds.12 mph35%29.50 "Hg2 mi
5:50 PM66 °FPassing clouds.12 mph37%29.47 "Hg2 mi
5:20 PM66 °FPartly sunny.12 mph40%29.47 "Hg2 mi
4:50 PM66 °FPartly sunny.12 mph40%29.47 "Hg2 mi
4:20 PM68 °FPartly sunny.15 mph38%29.47 "Hg2 mi
3:50 PM68 °FPartly sunny.15 mph38%29.47 "Hg2 mi
3:20 PM70 °FPartly sunny.15 mph35%29.45 "Hg2 mi
2:50 PM70 °FPartly sunny.15 mph35%29.45 "Hg2 mi
2:20 PM70 °FPartly sunny.12 mph38%29.45 "Hg2 mi
1:50 PM70 °FPartly sunny.12 mph38%29.45 "Hg2 mi
1:20 PM70 °FPartly sunny.12 mph38%29.45 "Hg2 mi
12:50 PM70 °FPartly sunny.12 mph38%29.45 "Hg2 mi
12:20 PM70 °FPartly sunny.15 mph38%29.42 "Hg2 mi
11:50 AM70 °FPartly sunny.15 mph38%29.42 "Hg2 mi
11:20 AM68 °FPartly sunny.14 mph46%29.42 "Hg2 mi
10:50 AM68 °FPartly sunny.12 mph46%29.42 "Hg2 mi
10:20 AM68 °FPartly sunny.12 mph43%29.39 "Hg2 mi
8:50 AM64 °FPartly sunny.12 mph60%29.36 "Hg2 mi
7:50 AM64 °FBroken clouds.12 mph56%29.36 "Hg2 mi
2:50 AM61 °FPassing clouds.17 mph72%29.39 "HgN/A
2:20 AM61 °FPassing clouds.17 mph72%29.39 "HgN/A
Weather by CustomWeather, © 2014

See weather overviewHow to use our weather pages